Вернуться в каталог

ATLAS 5 CENTAUR R/B

АктивенHEO
NORAD 36869·ROCKET BODY·🇺🇸 United States

Запущен Aug 14, 2010 с Cape Canaveral Space Force Station

Loading…

Ближайшие Пролёты (ближайшие 24 часа)

TLE

СвежийSource: Space-Track

Эпоха: Sep 14, 2026, 11:00 UTC

1 36869U 10039B   26257.45890831  .00010451  00000-0  77635-3 0  9997
2 36869  20.1230 240.7812 4433451 105.4301 306.5122  6.64692480294148

Отслеживайте ATLAS 5 CENTAUR R/B в реальном времени с AllMySat

Download on the App Store